Location: Winnipauk Village
(41.1295°N, 73.4171°W)
Time: 16:43:21
(UTC+00:00)

N. Korean satellite - Pass Details

Date: 10 August 2021
Orbit: 448 x 499 km, 97.3° (Epoch: 16 September)

Event Time Altitude Azimuth Distance (km) Brightness Sun altitude
Rises 09:14:05 0° 32° (NNE) 2,510 11.4 -8.4°
Reaches altitude 10° 09:16:57 10° 58° (ENE) 1,615 11.0 -7.9°
Maximum altitude 09:18:51 14° 92° (E) 1,372 9.8 -7.6°
Drops below altitude 10° 09:20:44 10° 126° (SE) 1,594 9.6 -7.3°
Sets 09:23:32 0° 152° (SSE) 2,452 10.1 -6.8°
